When you browse on this site, cookies collect data to enhance your experience and personalize the content and advertising you see.
Visit our Privacy Policy to learn more. By continuing to use the site, you agree to this use of cookies and data.
  • In Deutschland
  • Länderverzeichnis
  • Für 7 Tage
  • Wassertemperatur
  • Satellitenkarten
  • Wetterkarte
  • Widgets
  • user-avatar
    Anmelden

    Stündliche Wetter Mendoza

    Heute, 23 Juli, Dienstag

    Zeit Temperatur Niederschläge Wind Luftdruck Luftfeuchtigkeit
    00:00 +5°C° 0 mm 2 m/S 702 mmHg 42%
    01:00 +5°C° 0 mm 2 m/S 702 mmHg 43%
    02:00 +5°C° 0 mm 2 m/S 702 mmHg 43%
    03:00 +5°C° 0 mm 2 m/S 702 mmHg 43%
    04:00 +4°C° 0 mm 3 m/S 702 mmHg 44%
    05:00 +4°C° 0 mm 3 m/S 702 mmHg 44%
    06:00 +4°C° 0 mm 3 m/S 702 mmHg 44%
    07:00 +3°C° 0 mm 3 m/S 703 mmHg 44%
    08:00 +5°C° 0 mm 3 m/S 703 mmHg 41%
    09:00 +7°C° 0 mm 3 m/S 703 mmHg 37%
    10:00 +9°C° 0 mm 3 m/S 704 mmHg 34%
    11:00 +9°C° 0 mm 3 m/S 703 mmHg 32%
    12:00 +10°C° 0 mm 2 m/S 703 mmHg 31%
    13:00 +12°C° 0 mm 2 m/S 702 mmHg 30%
    14:00 +12°C° 0 mm 2 m/S 702 mmHg 30%
    15:00 +12°C° 0 mm 1 m/S 702 mmHg 30%
    16:00 +12°C° 0 mm 1 m/S 703 mmHg 30%
    17:00 +11°C° 0 mm 1 m/S 703 mmHg 33%
    18:00 +10°C° 0 mm 1 m/S 703 mmHg 37%
    19:00 +9°C° 0 mm 1 m/S 704 mmHg 41%
    20:00 +8°C° 0 mm 1 m/S 704 mmHg 42%
    21:00 +8°C° 0 mm 1 m/S 704 mmHg 44%
    22:00 +7°C° 0 mm 1 m/S 704 mmHg 45%
    23:00 +7°C° 0 mm 1 m/S 705 mmHg 46%

    Morgen, 24 Juli, Mittwoch

    Zeit Temperatur Niederschläge Wind Luftdruck Luftfeuchtigkeit
    00:00 +6°C° 0 mm 1 m/S 705 mmHg 47%
    01:00 +6°C° 0 mm 1 m/S 705 mmHg 48%
    02:00 +6°C° 0 mm 1 m/S 705 mmHg 48%
    03:00 +5°C° 0 mm 1 m/S 704 mmHg 49%
    04:00 +5°C° 0 mm 1 m/S 704 mmHg 49%
    05:00 +5°C° 0 mm 1 m/S 704 mmHg 48%
    06:00 +4°C° 0 mm 0 m/S 705 mmHg 48%
    07:00 +4°C° 0 mm 0 m/S 705 mmHg 47%
    08:00 +7°C° 0 mm 1 m/S 705 mmHg 41%
    09:00 +9°C° 0 mm 1 m/S 705 mmHg 36%
    10:00 +11°C° 0 mm 1 m/S 705 mmHg 30%
    11:00 +12°C° 0 mm 2 m/S 704 mmHg 29%
    12:00 +12°C° 0 mm 3 m/S 704 mmHg 28%
    13:00 +13°C° 0 mm 3 m/S 703 mmHg 27%
    14:00 +13°C° 0 mm 3 m/S 703 mmHg 28%
    15:00 +12°C° 0 mm 3 m/S 703 mmHg 29%
    16:00 +12°C° 0 mm 3 m/S 703 mmHg 29%
    17:00 +11°C° 0 mm 3 m/S 703 mmHg 32%
    18:00 +10°C° 0 mm 2 m/S 702 mmHg 35%
    19:00 +9°C° 0 mm 2 m/S 702 mmHg 37%
    20:00 +8°C° 0 mm 2 m/S 702 mmHg 38%
    21:00 +8°C° 0 mm 2 m/S 702 mmHg 38%
    22:00 +7°C° 0 mm 2 m/S 702 mmHg 39%
    23:00 +8°C° 0 mm 1 m/S 702 mmHg 41%

    übermorgen, 25 Juli, Donnerstag

    Zeit Temperatur Niederschläge Wind Luftdruck Luftfeuchtigkeit
    00:00 +7°C° 0 mm 1 m/S 702 mmHg 42%
    01:00 +7°C° 0 mm 1 m/S 701 mmHg 44%
    02:00 +6°C° 0 mm 1 m/S 701 mmHg 44%
    03:00 +6°C° 0 mm 1 m/S 701 mmHg 43%
    04:00 +6°C° 0 mm 1 m/S 700 mmHg 43%
    05:00 +6°C° 0 mm 1 m/S 700 mmHg 44%
    06:00 +6°C° 0 mm 1 m/S 701 mmHg 46%
    07:00 +5°C° 0 mm 1 m/S 701 mmHg 47%
    08:00 +8°C° 0 mm 1 m/S 701 mmHg 41%
    09:00 +10°C° 0 mm 1 m/S 701 mmHg 36%
    10:00 +12°C° 0 mm 2 m/S 701 mmHg 30%
    11:00 +13°C° 0 mm 2 m/S 701 mmHg 28%
    12:00 +14°C° 0 mm 2 m/S 700 mmHg 27%
    13:00 +15°C° 0 mm 2 m/S 700 mmHg 25%
    14:00 +15°C° 0 mm 2 m/S 700 mmHg 25%
    15:00 +15°C° 0 mm 2 m/S 700 mmHg 25%
    16:00 +15°C° 0 mm 1 m/S 699 mmHg 25%
    17:00 +14°C° 0 mm 1 m/S 699 mmHg 28%
    18:00 +12°C° 0 mm 1 m/S 699 mmHg 32%
    19:00 +10°C° 0 mm 0 m/S 699 mmHg 35%
    20:00 +10°C° 0 mm 1 m/S 699 mmHg 35%
    21:00 +10°C° 0 mm 1 m/S 700 mmHg 36%
    22:00 +9°C° 0 mm 1 m/S 700 mmHg 36%
    23:00 +9°C° 0 mm 1 m/S 700 mmHg 38%

    26 Juli, Freitag

    Zeit Temperatur Niederschläge Wind Luftdruck Luftfeuchtigkeit
    00:00 +7°C° 0 mm 0 m/S 700 mmHg 41%
    01:00 +7°C° 0 mm 0 m/S 699 mmHg 43%
    02:00 +6°C° 0 mm 0 m/S 699 mmHg 43%
    03:00 +6°C° 0 mm 0 m/S 699 mmHg 44%
    04:00 +7°C° 0 mm 1 m/S 699 mmHg 44%
    05:00 +7°C° 0 mm 1 m/S 700 mmHg 44%
    06:00 +7°C° 0 mm 1 m/S 701 mmHg 43%
    07:00 +8°C° 0 mm 1 m/S 701 mmHg 43%
    08:00 +9°C° 0 mm 2 m/S 702 mmHg 37%
    09:00 +10°C° 0 mm 2 m/S 702 mmHg 32%
    10:00 +12°C° 0 mm 3 m/S 703 mmHg 26%
    11:00 +13°C° 0 mm 3 m/S 703 mmHg 25%
    12:00 +14°C° 0 mm 3 m/S 703 mmHg 25%
    13:00 +14°C° 0 mm 4 m/S 703 mmHg 24%
    14:00 +14°C° 0 mm 3 m/S 703 mmHg 26%
    15:00 +13°C° 0 mm 3 m/S 703 mmHg 28%
    16:00 +13°C° 0 mm 3 m/S 702 mmHg 29%
    17:00 +12°C° 0 mm 2 m/S 703 mmHg 34%
    18:00 +11°C° 0 mm 1 m/S 703 mmHg 39%
    19:00 +10°C° 0 mm 1 m/S 703 mmHg 44%
    20:00 +9°C° 0 mm 1 m/S 703 mmHg 45%
    21:00 +9°C° 0 mm 1 m/S 703 mmHg 46%
    22:00 +8°C° 0 mm 1 m/S 703 mmHg 48%
    23:00 +8°C° 0 mm 1 m/S 702 mmHg 48%

    27 Juli, Samstag

    Zeit Temperatur Niederschläge Wind Luftdruck Luftfeuchtigkeit
    00:00 +8°C° 0 mm 1 m/S 702 mmHg 48%
    01:00 +7°C° 0 mm 1 m/S 702 mmHg 49%
    02:00 +7°C° 0 mm 1 m/S 702 mmHg 49%
    03:00 +7°C° 0 mm 1 m/S 701 mmHg 50%
    04:00 +6°C° 0 mm 0 m/S 701 mmHg 50%
    05:00 +7°C° 0 mm 1 m/S 701 mmHg 50%
    06:00 +7°C° 0 mm 1 m/S 701 mmHg 50%
    07:00 +6°C° 0 mm 1 m/S 701 mmHg 50%
    08:00 +8°C° 0 mm 1 m/S 701 mmHg 45%
    09:00 +10°C° 0 mm 1 m/S 701 mmHg 40%
    10:00 +12°C° 0 mm 2 m/S 701 mmHg 35%
    11:00 +13°C° 0 mm 2 m/S 700 mmHg 33%
    12:00 +13°C° 0 mm 3 m/S 700 mmHg 32%
    13:00 +14°C° 0 mm 4 m/S 699 mmHg 30%
    14:00 +14°C° 0 mm 3 m/S 699 mmHg 30%
    15:00 +14°C° 0 mm 3 m/S 699 mmHg 30%
    16:00 +14°C° 0 mm 3 m/S 698 mmHg 30%
    17:00 +14°C° 0 mm 2 m/S 698 mmHg 34%
    18:00 +12°C° 0 mm 2 m/S 698 mmHg 38%
    19:00 +11°C° 0 mm 1 m/S 698 mmHg 42%
    20:00 +10°C° 0 mm 1 m/S 698 mmHg 44%
    21:00 +10°C° 0 mm 1 m/S 698 mmHg 46%
    22:00 +10°C° 0 mm 1 m/S 697 mmHg 47%
    23:00 +9°C° 0 mm 1 m/S 697 mmHg 50%

    28 Juli, Sonntag

    Zeit Temperatur Niederschläge Wind Luftdruck Luftfeuchtigkeit
    00:00 +9°C° 0 mm 1 m/S 697 mmHg 53%
    01:00 +8°C° 0 mm 1 m/S 697 mmHg 56%
    02:00 +8°C° 0 mm 1 m/S 697 mmHg 60%
    03:00 +8°C° 0 mm 1 m/S 697 mmHg 63%
    04:00 +7°C° 0 mm 1 m/S 697 mmHg 67%
    05:00 +7°C° 0 mm 1 m/S 697 mmHg 68%
    06:00 +7°C° 0 mm 1 m/S 697 mmHg 70%
    07:00 +7°C° 0 mm 1 m/S 698 mmHg 71%
    08:00 +9°C° 0 mm 1 m/S 698 mmHg 65%
    09:00 +11°C° 0 mm 1 m/S 698 mmHg 59%
    10:00 +13°C° 0 mm 1 m/S 698 mmHg 53%
    11:00 +14°C° 0 mm 1 m/S 697 mmHg 49%
    12:00 +15°C° 0 mm 2 m/S 697 mmHg 46%
    13:00 +16°C° 0 mm 2 m/S 697 mmHg 42%
    14:00 +16°C° 0 mm 1 m/S 697 mmHg 42%
    15:00 +16°C° 0 mm 1 m/S 697 mmHg 41%
    16:00 +16°C° 0 mm 1 m/S 697 mmHg 40%
    17:00 +15°C° 0 mm 1 m/S 697 mmHg 45%
    18:00 +13°C° 0 mm 1 m/S 697 mmHg 49%
    19:00 +12°C° 0 mm 1 m/S 697 mmHg 53%
    20:00 +12°C° 0 mm 1 m/S 698 mmHg 56%
    21:00 +11°C° 0 mm 1 m/S 698 mmHg 59%
    22:00 +10°C° 0 mm 1 m/S 698 mmHg 62%
    23:00 +10°C° 0 mm 1 m/S 698 mmHg 64%
    Mehr zeigen